| time (UTC) | temp F | wind direction | speed knots | gust knots | rain 1hr in | rain 24hr in | rain mn in | humidity % | barometer mb |
| 20260509173053 | 57 | 211 | 6.1 | 9.6 | 0.00 | 0.35 | 0.35 | 85 | 1009.4 |
| 20260509171541 | 56 | 281 | 3.5 | 9.6 | 0.01 | 0.35 | 0.35 | 87 | 1009.3 |
| 20260509170038 | 56 | 244 | 3.5 | 7.0 | 0.01 | 0.35 | 0.35 | 89 | 1009.3 |
| 20260509164534 | 55 | 229 | 4.3 | 7.8 | 0.01 | 0.35 | 0.35 | 90 | 1009.2 |
| 20260509163040 | 54 | 214 | 4.3 | 13.9 | 0.02 | 0.35 | 0.35 | 90 | 1009.1 |
| 20260509161552 | 54 | 234 | 7.0 | 13.0 | 0.02 | 0.34 | 0.34 | 90 | 1009.0 |
| 20260509160040 | 53 | 201 | 6.1 | 13.9 | 0.03 | 0.34 | 0.34 | 91 | 1008.9 |
| 20260509154545 | 53 | 186 | 6.1 | 13.9 | 0.03 | 0.33 | 0.33 | 92 | 1009.0 |
| 20260509153056 | 53 | 221 | 6.1 | 15.6 | 0.05 | 0.33 | 0.33 | 92 | 1009.2 |
| 20260509151540 | 53 | 209 | 3.5 | 9.6 | 0.05 | 0.32 | 0.32 | 93 | 1009.3 |
| 20260509150042 | 53 | 235 | 4.3 | 8.7 | 0.06 | 0.31 | 0.31 | 93 | 1009.4 |
| 20260509144545 | 53 | 210 | 4.3 | 13.9 | 0.07 | 0.30 | 0.30 | 93 | 1009.3 |
| 20260509143037 | 53 | 216 | 5.2 | 13.0 | 0.07 | 0.28 | 0.28 | 93 | 1009.5 |
| 20260509141542 | 52 | 220 | 6.1 | 12.2 | 0.07 | 0.27 | 0.27 | 92 | 1009.7 |
| 20260509140052 | 52 | 220 | 5.2 | 10.4 | 0.05 | 0.24 | 0.24 | 92 | 1009.6 |
| 20260509134539 | 52 | 211 | 5.2 | 12.2 | 0.06 | 0.23 | 0.23 | 92 | 1009.8 |
| 20260509133039 | 52 | 251 | 6.1 | 13.9 | 0.05 | 0.21 | 0.21 | 92 | 1009.7 |
| 20260509131538 | 52 | 222 | 7.8 | 13.9 | 0.05 | 0.20 | 0.20 | 91 | 1010.0 |
| 20260509130038 | 52 | 211 | 5.2 | 12.2 | 0.05 | 0.19 | 0.19 | 91 | 1009.9 |
| 20260509124533 | 52 | 223 | 6.1 | 13.0 | 0.04 | 0.17 | 0.17 | 91 | 1009.8 |
| 20260509123033 | 52 | 207 | 7.0 | 12.2 | 0.03 | 0.16 | 0.16 | 92 | 1010.1 |
| 20260509121539 | 52 | 222 | 4.3 | 9.6 | 0.04 | 0.15 | 0.15 | 92 | 1009.9 |
| 20260509120039 | 52 | 215 | 2.6 | 7.8 | 0.04 | 0.14 | 0.14 | 91 | 1009.9 |
| 20260509114538 | 52 | 215 | 3.5 | 7.8 | 0.06 | 0.13 | 0.13 | 91 | 1010.1 |
| 20260509113035 | 51 | 240 | 4.3 | 8.7 | 0.07 | 0.13 | 0.13 | 91 | 1009.9 |
| 20260509111539 | 51 | 206 | 4.3 | 12.2 | 0.06 | 0.11 | 0.11 | 90 | 1009.8 |
| 20260509110039 | 51 | 186 | 5.2 | 14.8 | 0.05 | 0.10 | 0.10 | 90 | 1009.8 |
| 20260509104539 | 51 | 220 | 6.1 | 11.3 | 0.04 | 0.07 | 0.07 | 90 | 1009.8 |
| 20260509103046 | 51 | 206 | 4.3 | 9.6 | 0.03 | 0.06 | 0.06 | 89 | 1009.7 |
| 20260509101540 | 52 | 236 | 5.2 | 12.2 | 0.04 | 0.05 | 0.05 | 89 | 1009.7 |
| 20260509100038 | 52 | 207 | 6.1 | 11.3 | 0.04 | 0.05 | 0.05 | 88 | 1009.9 |
| 20260509094536 | 52 | 187 | 6.1 | 13.9 | 0.02 | 0.03 | 0.03 | 87 | 1010.1 |
| 20260509093043 | 52 | 222 | 5.2 | 10.4 | 0.03 | 0.03 | 0.03 | 86 | 1010.2 |
| 20260509091548 | 51 | 252 | 6.1 | 9.6 | 0.01 | 0.01 | 0.01 | 87 | 1010.3 |
| 20260509090041 | 51 | 204 | 1.7 | 4.3 | 0.01 | 0.01 | 0.01 | 89 | 1010.1 |
| 20260509084536 | 51 | 219 | 0.9 | 3.5 | 0.01 | 0.01 | 0.01 | 89 | 1009.9 |
| 20260509083042 | 51 | 209 | 0.0 | 1.7 | 0.00 | 0.00 | 0.00 | 89 | 1009.7 |
| 20260509081540 | 51 | 0 | 0.0 | 1.7 | 0.00 | 0.00 | 0.00 | 87 | 1009.3 |
| 20260509080046 | 51 | 0 | 0.0 | 0.0 | 0.00 | 0.00 | 0.00 | 86 | 1009.2 |
| 20260509074550 | 51 | 0 | 0.0 | 2.6 | 0.00 | 0.00 | 0.00 | 85 | 1009.0 |
| 20260509073058 | 51 | 34 | 0.9 | 5.2 | 0.00 | 0.00 | 0.00 | 85 | 1009.1 |
| 20260509071548 | 51 | 352 | 0.0 | 1.7 | 0.00 | 0.00 | 0.00 | 85 | 1009.1 |
| 20260509070044 | 51 | 352 | 0.9 | 3.5 | 0.00 | 0.00 | 0.00 | 85 | 1008.9 |
| 20260509064540 | 52 | 0 | 0.0 | 2.6 | 0.00 | 0.00 | 0.00 | 83 | 1009.0 |
| 20260509063052 | 52 | 134 | 0.9 | 6.1 | 0.00 | 0.00 | 0.00 | 81 | 1009.0 |
| 20260509061537 | 52 | 101 | 1.7 | 6.1 | 0.00 | 0.00 | 0.00 | 81 | 1009.6 |
| 20260509060101 | 51 | 205 | 0.9 | 4.3 | 0.00 | 0.00 | 0.00 | 83 | 1010.3 |
| 20260509054543 | 51 | 0 | 0.0 | 3.5 | 0.00 | 0.00 | 0.00 | 84 | 1010.3 |
| 20260509053052 | 51 | 0 | 0.9 | 3.5 | 0.00 | 0.00 | 0.00 | 86 | 1010.5 |
| 20260509051538 | 51 | 135 | 0.9 | 5.2 | 0.00 | 0.00 | 0.00 | 87 | 1010.7 |
| 20260509050035 | 50 | 146 | 1.7 | 5.2 | 0.00 | 0.00 | 0.00 | 89 | 1010.9 |
| 20260509044542 | 51 | 0 | 0.0 | 0.0 | 0.00 | 0.00 | 0.00 | 90 | 1011.0 |
| 20260509043051 | 51 | 0 | 0.0 | 1.7 | 0.00 | 0.00 | 0.00 | 88 | 1011.2 |
| 20260509041541 | 51 | 86 | 0.9 | 6.1 | 0.00 | 0.00 | 0.00 | 88 | 1011.2 |
| 20260509040058 | 51 | 75 | 2.6 | 6.1 | 0.00 | 0.00 | 0.00 | 88 | 1011.4 |
| 20260509034538 | 51 | 90 | 2.6 | 7.8 | 0.00 | 0.00 | 0.00 | 87 | 1011.9 |
| 20260509033047 | 52 | 69 | 1.7 | 5.2 | 0.00 | 0.00 | 0.00 | 86 | 1012.0 |
| 20260509031544 | 52 | 79 | 1.7 | 4.3 | 0.00 | 0.00 | 0.00 | 84 | 1012.2 |
| 20260509030039 | 52 | 75 | 2.6 | 8.7 | 0.00 | 0.00 | 0.00 | 83 | 1012.0 |
| 20260509024547 | 52 | 25 | 3.5 | 7.0 | 0.00 | 0.00 | 0.00 | 81 | 1012.1 |
| 20260509023038 | 53 | 59 | 0.9 | 4.3 | 0.00 | 0.00 | 0.00 | 78 | 1012.1 |
| 20260509021538 | 53 | 17 | 1.7 | 4.3 | 0.00 | 0.00 | 0.00 | 77 | 1011.8 |
| 20260509020035 | 53 | 352 | 0.9 | 3.5 | 0.00 | 0.00 | 0.00 | 79 | 1011.5 |
| 20260509014542 | 53 | 0 | 0.0 | 2.6 | 0.00 | 0.00 | 0.00 | 78 | 1011.2 |
| 20260509013040 | 53 | 0 | 0.0 | 1.7 | 0.00 | 0.00 | 0.00 | 77 | 1010.8 |
| 20260509011544 | 53 | 0 | 0.0 | 1.7 | 0.00 | 0.00 | 0.00 | 74 | 1010.8 |
| 20260509010040 | 54 | 84 | 0.0 | 2.6 | 0.00 | 0.00 | 0.00 | 74 | 1010.8 |
| 20260509004537 | 54 | 66 | 0.9 | 3.5 | 0.00 | 0.00 | 0.00 | 73 | 1010.8 |
| 20260509003037 | 54 | 74 | 0.9 | 2.6 | 0.00 | 0.00 | 0.00 | 73 | 1010.9 |
| 20260509001539 | 55 | 59 | 1.7 | 3.5 | 0.00 | 0.00 | 0.00 | 72 | 1010.9 |
| 20260509000040 | 55 | 51 | 0.9 | 2.6 | 0.00 | 0.00 | 0.00 | 71 | 1011.0 |
| 20260508234538 | 56 | 59 | 0.9 | 2.6 | 0.00 | 0.00 | 0.00 | 70 | 1010.8 |
| 20260508233039 | 56 | 32 | 0.0 | 1.7 | 0.00 | 0.00 | 0.00 | 70 | 1010.9 |
| 20260508231537 | 56 | 0 | 0.9 | 3.5 | 0.00 | 0.00 | 0.00 | 68 | 1011.0 |
| 20260508230036 | 57 | 51 | 0.0 | 1.7 | 0.00 | 0.00 | 0.00 | 68 | 1010.9 |
| 20260508224547 | 58 | 360 | 0.9 | 2.6 | 0.00 | 0.00 | 0.00 | 64 | 1010.9 |
| 20260508223041 | 58 | 0 | 0.0 | 1.7 | 0.00 | 0.00 | 0.00 | 61 | 1011.1 |
| 20260508221539 | 58 | 0 | 0.0 | 2.6 | 0.00 | 0.00 | 0.00 | 61 | 1010.9 |
| 20260508220047 | 58 | 0 | 0.0 | 3.5 | 0.00 | 0.00 | 0.00 | 63 | 1011.0 |
| 20260508214542 | 58 | 164 | 0.9 | 4.3 | 0.00 | 0.00 | 0.00 | 63 | 1011.0 |
| 20260508213041 | 57 | 155 | 1.7 | 3.5 | 0.00 | 0.00 | 0.00 | 62 | 1011.2 |
| 20260508211538 | 57 | 194 | 0.0 | 3.5 | 0.00 | 0.00 | 0.00 | 65 | 1011.6 |
| 20260508210039 | 57 | 202 | 0.9 | 5.2 | 0.00 | 0.00 | 0.00 | 65 | 1011.7 |
| 20260508204539 | 57 | 209 | 0.0 | 3.5 | 0.00 | 0.00 | 0.00 | 66 | 1011.8 |
| 20260508203040 | 57 | 254 | 1.7 | 11.3 | 0.00 | 0.00 | 0.00 | 65 | 1012.1 |
| 20260508201536 | 58 | 266 | 2.6 | 8.7 | 0.00 | 0.00 | 0.00 | 62 | 1012.3 |
| 20260508200043 | 58 | 275 | 5.2 | 13.0 | 0.00 | 0.00 | 0.00 | 60 | 1012.4 |
| 20260508194556 | 58 | 220 | 7.0 | 15.6 | 0.00 | 0.00 | 0.00 | 59 | 1012.2 |
| 20260508193039 | 58 | 225 | 6.1 | 12.2 | 0.00 | 0.00 | 0.00 | 61 | 1012.3 |
| 20260508191545 | 59 | 248 | 5.2 | 16.5 | 0.00 | 0.00 | 0.00 | 58 | 1012.5 |
| 20260508190044 | 60 | 271 | 7.0 | 13.9 | 0.00 | 0.00 | 0.00 | 56 | 1012.5 |
| 20260508184543 | 59 | 252 | 7.8 | 16.5 | 0.00 | 0.00 | 0.00 | 55 | 1012.5 |
| 20260508183043 | 59 | 233 | 7.0 | 14.8 | 0.00 | 0.00 | 0.00 | 55 | 1012.6 |
| 20260508181546 | 60 | 219 | 11.3 | 20.9 | 0.00 | 0.00 | 0.00 | 52 | 1012.2 |
| 20260508180038 | 62 | 230 | 7.0 | 16.5 | 0.00 | 0.00 | 0.00 | 50 | 1012.2 |
| 20260508174541 | 63 | 286 | 10.4 | 18.2 | 0.00 | 0.00 | 0.00 | 50 | 1012.3 |